Regional Weather Roundup
Issued by NWS Jackson, KY

Home | Current Version | Previous Version | Text Only | Print | Product List | Glossary Off
Versions: 1 2 3 4 5 6 7 8 9 10 11 12 13 14 15 16 17 18 19 20 21 22 23 24 25 26 27 28 29 30 31 32 33 34 35 36 37 38 39 40 41 42 43 44 45 46 47 48 49 50

000
ASUS43 KJKL 301510
RWRJKL

EAST KENTUCKY HOURLY WEATHER ROUNDUP
NATIONAL WEATHER SERVICE JACKSON KY
1100 AM EDT TUE JUN 30 2015

NOTE: "FAIR" INDICATES FEW OR NO CLOUDS BELOW 12,000 FEET WITH
NO SIGNIFICANT WEATHER AND/OR OBSTRUCTIONS TO VISIBILITY.

* THESE REPORTS ARE NOT UNDER NWS QUALITY CONTROL AND MAY NOT
  REPORT WEATHER SUCH AS PRECIPITATION AND FOG.

KYZ079-080-083-085-087-088-110-112-115-119-120-301600
...EASTERN KENTUCKY...

CITY           SKY/WX    TMP DP  RH WIND       PRES   REMARKS
JACKSON        PTSUNNY   73  67  81 CALM      29.96F
LONDON         MOSUNNY   75  65  70 S8        29.96F
SOMERSET*      CLOUDY    72  70  94 S3        29.96S
MONTICELLO*    SUNNY     78  71  79 SW10      29.98S
MIDDLESBORO*   MOSUNNY   71  65  83 S7        30.00S
HARLAN APT*      N/A     72  63  73 N8        30.00F
BLACK MTN*       N/A     63  63 100 SW6         N/A
PIKEVILLE APT* PTSUNNY   72  66  83 S5        29.96F
BIG SANDY*     CLOUDY    75  67  76 SW6       29.95F
MOREHEAD APT*  PTSUNNY   73  66  78 SW9       29.95S
$$

KYZ035-036-041-042-044-050-067-078-099-301600
...CENTRAL KENTUCKY...

CITY           SKY/WX    TMP DP  RH WIND       PRES   REMARKS
MT STERLING*   CLOUDY    72  68  88 W7        29.95S
FLEMING/MASON* CLOUDY    75  68  78 SW12      29.92S
DANVILLE*      CLOUDY    72  68  88 SW9       29.95F
RICHMOND*      CLOUDY    72  66  83 SW6       29.94S
LEXINGTON      MOSUNNY   73  67  81 SW8       29.93S
FRANKFORT      CLOUDY    72  66  81 SW7       29.92S
$$

KYZ091>093-OHZ055-061-077-WVZ005-015-034-035-042-301600
...SOUTHERN OHIO/WEST VIRGINIA...

CITY           SKY/WX    TMP DP  RH WIND       PRES   REMARKS
COVINGTON      PTSUNNY   72  66  81 SW10      29.89F
COLUMBUS       CLOUDY    71  64  78 SW8       29.85F
DAYTON         CLOUDY    72  67  84 SW12      29.86F
WILMINGTON     PTSUNNY   72  65  78 SW13      29.88S
HUNTINGTON     MOSUNNY   74  66  76 SW8       29.91F
CHARLESTON     PTSUNNY   75  65  70 SW10      29.92F
PINEVILLE*     CLOUDY    74  66  76 MISG      30.03S
BECKLEY        PTSUNNY   72  61  68 SW12      30.01S
BLUEFIELD      CLOUDY    70  60  70 W13       30.04S
$$

VAZ002-007-008-TNZ017-027-036-066-071-301600
...SOUTHWEST VIRGINIA/EAST TENNESSEE...

CITY           SKY/WX    TMP DP  RH WIND       PRES   REMARKS
WISE*          MOSUNNY   70  61  73 SW12      30.05S
JONESVILLE*      N/A    N/A N/A N/A MISG        N/A
ABINGDON*      CLOUDY    70  64  81 W8        30.04F
BRISTOL        PTSUNNY   72  63  73 SW7       30.01F
KNOXVILLE      MOSUNNY   75  68  78 SW7       29.98F
OAK RIDGE      PTSUNNY   75  67  76 VRB6      30.00S
CROSSVILLE     PTSUNNY   75  67  76 VRB7      30.03R THUNDER
NASHVILLE      CLOUDY    79  72  79 SW5       29.96R
$$

...KEY TO REMARKS...
VSB - VISIBILITY IN MILES
WCI - WIND CHILL INDEX
HX  - HEAT INDEX

$$


USA.gov is the U.S. government's official web portal to all federal, state and local government web resources and services.